Regional Weather Roundup
Issued by NWS Wakefield, VA

Home | Current Version | Previous Version | Text Only | Print | Product List | Glossary On
Versions: 1 2 3 4 5 6 7 8 9 10 11 12 13 14 15 16 17 18 19 20 21 22 23 24 25 26 27
000
ASUS41 KAKQ 200915
RWRAKQ

REGIONAL WEATHER ROUNDUP
NATIONAL WEATHER SERVICE WAKEFIELD VA
500 AM EDT WED SEP 20 2017

Note: "fair" indicates few or no clouds below 12,000 feet with no
significant weather and/or obstructions to visibility. * = Denotes
station may not report precipitation (e.g., rain,snow,etc.),
thunder or fog.

VAZ042-051-052>054-056-201000-
NORTHERN VIRGINIA

CITY           SKY/WX    TMP DP  RH WIND       PRES   REMARKS
WASH NATIONAL  PTCLDY    71  64  78 NW10      29.91F
DULLES         PTCLDY    63  63 100 N3        29.94S
FORT BELVOIR   CLEAR     68  62  82 NW3       29.92R
QUANTICO       MOCLDY    68  65  90 NW10      29.93R
FREDERICKSBRG* CLEAR     67  64  89 NW3       29.93R
STAFFORD*      CLEAR     62  62 100 CALM      29.97S
WARRENTON      CLEAR     59  56  91 CALM      29.94S
CULPEPER*      CLEAR     64  63  98 NE5       29.95F
MANASSAS*      CLEAR     59  59 100 CALM      29.94S
LEESBURG*      CLEAR     68  64  88 N5        29.95S
WINCHESTER     CLEAR     57  57 100 CALM      29.97S
FRONT ROYAL*   SUNNY     61  61 100 CALM      29.97R
LURAY*         MOSUNNY   59  59 100 CALM      29.99S FOG
$$

VAZ048-049-060>072-079>083-201000-
CENTRAL AND SOUTH CENTRAL VIRGINIA

CITY           SKY/WX    TMP DP  RH WIND       PRES   REMARKS
RICHMOND       CLEAR     68  63  84 NW6       29.92S
CHESTERFIELD*  NOT AVBL
PETERSBURG*    CLEAR     63  63  99 CALM      29.94S
HANOVER        CLEAR     65  63  93 CALM      29.94R
TAPPAHANNOCK*  CLEAR     69  65  88 W3        29.92R
QUINTON*       FAIR      65  65 100 N5        29.92R
CHARLOTTSVILLE CLEAR     63  61  93 CALM      29.96R FOG
GORDONSVILLE*  SUNNY     60  60 100 CALM      29.95S
ORANGE*        CLEAR     59  59 100 CALM      29.95S FOG
LOUISA*        CLEAR     57  55  94 CALM      29.95S FOG
BUMPASS*       NOT AVBL
FARMVILLE*     PTCLDY    60  60 100 CALM      29.95S FOG
CREWE*         FAIR      62  62 100 CALM      29.95S
FORT PICKETT*  FAIR      62  62 100 CALM      29.95F
CHASE CITY*    FAIR      62  62 100 CALM      29.96S
CLARKSVILLE*   FAIR      61  61 100 CALM      29.95S
SOUTH HILL*    CLEAR     61  61 100 CALM      30.01S
LAWRENCEVILLE* FAIR      63  62  97 CALM      29.95S
EMPORIA*       CLEAR     61  61 100 CALM      29.95S
$$

VAZ088>098-201000-
SOUTHEAST VIRGINIA

CITY           SKY/WX    TMP DP  RH WIND       PRES   REMARKS
NORFOLK        PTCLDY    73  67  81 VRB6      29.88R
VIRGINIA BEACH PTCLDY    70  65  84 W7        29.87R
NORFOLK NAVAL  MOCLDY    73  67  81 W9        29.90R
WEST POINT*    PTCLDY    70  64  83 NW5       29.91S
SALUDA*        FAIR      70  68  93 W3        29.88S
NEWPORT NEWS   CLOUDY    72  65  78 NW8       29.90R
LANGLEY AFB    CLEAR     71  66  87 NW8       29.89R
FORT EUSTIS    PTCLDY    72  66  80 NW9       29.88R
WILLIAMSBURG*  CLEAR     70  66  88 NW5       29.91S
HR EXEC AP*    CLOUDY    68  66  93 CALM      29.91R
FRANKLIN*      CLEAR     65  63  93 W3        29.92F
US460-WAKEFLD  CLEAR     67  65  93 W3        29.92S
$$

VAZ020-022-025-037-045-201000-
WEST CENTRAL AND SOUTHWEST VIRGINIA

CITY           SKY/WX    TMP DP  RH WIND       PRES   REMARKS
STAUNTON*      CLOUDY    55  55  99 CALM      30.03R FOG
WAYNESBORO*    SUNNY     58  58 100 CALM      30.01S
HOT SPRINGS VA CLEAR     63  55  75 CALM      30.12R
LYNCHBURG      PTCLDY    63  62  97 NW3       29.98R
DANVILLE       PTCLDY    63  63 100 CALM      29.96S FOG
SOUTH BOSTON*  FAIR      61  59  95 CALM      29.96S
MARTINSVILLE   CLOUDY    60  59  97 CALM      30.00S FOG
ROANOKE        PTCLDY    67  64  90 NE5       30.01S
BLACKSBURG     PTCLDY    60  60 100 CALM      30.08R FOG
DUBLIN*        PTCLDY    62  62 100 CALM      30.06S
MARION*        CLEAR     60  57  90 W8        30.10R
HILLSVILLE*    PTCLDY    60  56  86 CALM      30.06S FOG
RICHLANDS*     FAIR      60  59  96 CALM      30.09R
WISE*          PTCLDY    63  63 100 CALM      30.09S FOG
ABINGDON*      CLEAR     62  62  99 E3        30.06S
$$

MDZ021>025-VAZ099-100-201000-
SOUTHERN MARYLAND AND THE DELMARVA PENINSULA

CITY           SKY/WX    TMP DP  RH WIND       PRES   REMARKS
PATUXENT RIVER CLEAR     71  67  87 NW10      29.87F
BAY BRIDGE APT CLOUDY    73  66  78 N9G18     29.88R
LEONARDTOWN    MOCLDY    68  63  83 W5        29.90S
DOVER          CLEAR     69  69 100 NW10      29.82S
GEORGETOWN     CLOUDY    69  65  86 VRB6      29.84R
EASTON         PTCLDY    72  66  81 N8        29.91R
CAMBRIDGE      CLOUDY    73  66  78 NW8G15    29.87R
SALISBURY      CLOUDY    69  67  93 NW9       29.84S
OCEAN CITY     CLOUDY    69  67  93 NW12G17   29.81S
WALLOPS ISLAND MOCLDY    69  67  93 NW12      29.84S
ACCOMACK*      CLOUDY    73  68  84 NW8       29.85S
$$

NCZ012>017-030>032-201000-
NORTH CENTRAL AND EASTERN NORTH CAROLINA

CITY           SKY/WX    TMP DP  RH WIND       PRES   REMARKS
ROANOKE RAPIDS FAIR      63  63 100 MISG      29.94S
RALEIGH        CLEAR     64  64 100 CALM      29.97R
ELIZABETH CITY MOCLDY    69  68  96 W9        29.89S
AHOSKIE*         N/A     64  64 100 CALM      29.93F
EDENTON*       CLEAR     71  66  84 CALM      29.92S
CURRITUCK*     PTCLDY    69  67  92 W5        29.89S
KILL DEVIL HLS CLOUDY    71  67  87 CALM      29.87S
MANTEO         CLOUDY    72  68  88 NW7       29.89R
CAPE HATTERAS  MOCLDY    74  69  85 NW9       29.91R
TARBORO*       NOT AVBL
GOLDSBORO      CLEAR     66  66 100 CALM      29.94S
WASHINGTON     CLEAR     67  65  93 CALM      29.94R
GREENVILLE     CLEAR     64  64 100 CALM      29.96S FOG
NEW BERN       CLEAR     67  66  97 SW3       29.96R
WILMINGTON     CLEAR     67  65  93 CALM      29.97R
$$

VAZ048-201000-
ELSEWHERE

CITY           SKY/WX    TMP DP  RH WIND       PRES   REMARKS
HARRISBURG PA  CLOUDY    70  64  81 W12       29.91F
BALTIMORE      CLOUDY    71  65  81 NW5       29.89S
ANNAPOLIS      CLOUDY    76  69  79 NW6       29.88S
ANDREWS AFB    PTCLDY    70  63  77 NW9       29.90S
PHILADELPHIA   PTCLDY    71  63  75 N13       29.84F
HENDERSON NC   CLEAR     61  60  94 CALM      29.97R
GREENSBORO     CLEAR     65  65 100 CALM      29.97S
ROCKY MOUNT    CLEAR     62  62 100 CALM      29.96R FOG
$$

VAZ100-201000-
MARINE

STATION/POSITION TIME  TEMP    WIND        PRES    WAVE   SWELL
                       AIR SEA DIR/SP/G            HT/PER HT/PER
                 (UTC) (F)     (DEG/KT/KT) (MB)    (FT/S) (FT/S)
BRANDYWINE LGT   0836   73     350/ 21/ 29 1009.5S
CAPE MAY NJ      0836   72 73  340/ 10/ 23 1008.5F
LEWES DE         0836   73 72  340/ 18/ 22 1009.2F
15NM E FENWICK I 0850   72 71  330/ 19/ 25 1008.4R   9/11   7/11
OCEAN-CITY-INLET 0836   70 72  330/ 12/ 15 1009.7R
WACHAPREAGUE VA  0836   72 73  320/  3/ 10 1010.7R
THOMAS POINT MD  0900   73 75  320/ 10/ 12   N/A
GOOSES REEF MD   0900   74 74  360/ 14/ 16 1011.9    4
COVE POINT MD    0836   73     340/ 14/ 18 1012.2S
SOLOMONS ISLAND  0836   72 75  320/  8/ 11 1011.3F
BISHOPS HEAD MD  0836   72 74  320/  9/ 12 1011.4R
PINEY POINT MD   0836          340/ 13/ 14   N/A
POTOMAC MD       0900   72 75  320/ 12/ 14 1010.8    1/ 2
CAMBRIDGE MD     0836   73 75              1012.1R
LEWISETTA VA     0836   73 75  340/  6/  9 1011.7S
RAPPAHANNOCK LGT 0836          330/ 19/ 21 1011.6S
STINGRAY PT      0900   72 75  340/ 14/ 16 1011.9    1/ 2
YORK RVR RNG VA  0836   72     310/ 12/ 13 1012.2R
YORKTOWN VA      0836   73 76  300/ 11/ 15 1011.7R
JAMESTOWN VA     0900      77  310/ 12/ 14   N/A
DOMINION TERM VA 0836   74     310/ 13/ 16 1012.1R
KIPTOPEKE VA     0836      74  320/ 17/ 19   N/A
CHES BAY BRIDGE  0836   73 74  290/ 14/ 16 1011.5R
CAPE HENRY VA    0836   74     290/ 12/ 15   N/A
WILLOUBY STN VA  0836   73     300/ 12/ 13 1011.9R
S CRANEY ISL VA  0836   71     280/  5/  7 1011.8R
CAPE HENRY BUOY  0900      74                N/A     6/ 9   2/11
1ST LANDING BUOY 0900   73 74              1011.5    3/ 4
64NM E OF VA BCH 0850   70 70  310/ 12/ 12 1010.3R  10/11  10/11
DUCK PIER NC     0836   72 74  290/ 10/ 13 1011.3R
44100 DUCK FRF   0835      74                N/A     8/12   3/12
44056 DUCK FRF   0900      74                N/A     7/10   3/12
OREGON INLET NC  0836   72 73  270/  6/  9 1011.8R
HATTERAS NC      0836   74 75  300/ 16/ 18 1012.7R
DIAMOND SHLS NC  0850   75 74  300/ 14/ 17 1012.4R   6/11   5/11
CAPE LOOKOUT NC  0900   76     270/  8/ 10 1013.7R
$$




USA.gov is the U.S. government's official web portal to all federal, state and local government web resources and services.